User: anonymous   Login
Location: Eimen
(51.8766°N, 9.7806°E)
Time: 23:08:52
(UTC+00:00)
Language:

Meteor 1-24 Rocket - Orbit

View from above orbital plane
View from above orbital plane
View from above satellite
View from above satellite

Ground track
Ground track

The orbit data is extracted from the following two-line orbital elements,

1 08800U 76032B   24204.59260733  .00000051  00000-0  20167-4 0  9997
2 08800  81.2479 214.9214 0094812  44.9779 315.9021 14.10416061483354
Epoch (UTC): 22 July 2024 14:13:21
Eccentricity: 0.0094812
inclination: 81.2479°
perigee height: 789 km
apogee height: 926 km
right ascension of ascending node: 214.9214°
argument of perigee: 44.9779°
revolutions per day: 14.10416061
mean anomaly at epoch: 315.9021°
orbit number at epoch: 48335

The dashed part of the orbit path shows where the satellite is in the earth's shadow,  

DLR